GSVT2: Red River, Gainesville, TX

Data processed at Fri Dec 08 2017 23:31


All information presented herein is the property of the government of the United States of America and may be revised or deleted at any time without prior notice.
Dissemination of this information without the expressed written consent of the Public Affairs Office, Tulsa District U.S. Army Corps of Engineers is strictly prohibited.
These data are gathered electronically and, as presented, have not undergone any form of quality control. These data are not guaranteed to be valid or correct.
Go to home page.
Go to station list.

Upstream stations:

Downstream station:
Previous Day
Next Day
Current Day
    
SHEF ID:       GSVT2     Red River near Gainesville, TX
STATION TYPE:  

               PRECIP     STAGE  RIV-FLOW  BAT-LOAD
                   in        ft       cfs      volt
              Ccp-Rev   Ccp-Rev   Ccp-Rev   Ccp-Rev
(US/Central)
12/06 00:00      ----      6.23       340      ----
12/06 01:00      ----      6.23       340     12.57
12/06 02:00      0.00      6.23       340     12.57
12/06 03:00      0.00      6.23       644     12.57
12/06 04:00      0.00      6.23       644     12.49
12/06 05:00      0.00      6.23       644     12.49
12/06 06:00      0.00      6.23       644     12.49
12/06 07:00      0.00      6.23       644     12.41
12/06 08:00      0.00      6.23       644     12.41
12/06 09:00      0.00      6.22       634     12.49
12/06 10:00      0.00      6.22       634     12.73
12/06 11:00      0.00      6.20       614     13.29
12/06 12:00      0.00     49.08      ----     13.44
12/06 13:00      0.00      6.19       605     13.29
12/06 14:00      0.00      6.20       614     13.21
12/06 15:00      0.00      6.20       614     13.13
12/06 16:00      0.00      6.20       614     13.05
12/06 17:00      0.00      6.19       605     13.05
12/06 18:00      0.00      6.18       595     12.73
12/06 19:00      0.00     49.08      ----     12.65
12/06 20:00      0.00      6.16       576     12.65
12/06 21:00      0.00      6.18       595     12.65
12/06 22:00      0.00      6.19       605     12.65
12/06 23:00      0.00      6.19       605     12.65